#timestamp,LO_Frequency,Hit,StdDev 
1586520015.5,286046995.2,N
1586520035.3,286046996.3,N
1586520055.2,286046993.3,N
1586520075.0,286046996.4,N
1586520075.9,286046996.4,N
1586520095.7,286046994.2,N
1586520115.6,286046993.7,N
1586520135.4,286046995.8,N
1586520155.3,286046995.9,N
1586520175.1,286046995.9,N
1586520195.8,286046993.8,N
1586520215.7,286046993.4,N
1586520235.5,286046994.0,N
1586520255.4,286046991.8,Y
1586520275.2,286046997.0,P
1586520295.0,286046996.1,P
1586520295.9,286046996.1,P
1586520315.8,286046995.6,Y
1586520335.6,286046998.6,P
1586520355.5,286047002.8,N
1586520375.3,286047002.1,N
1586520395.1,286047003.9,N
1586520415.9,286047001.3,N
1586520435.7,286047004.3,N
1586520455.5,286047001.5,N
1586520475.4,286046999.8,N
1586520495.2,286047001.4,N
1586520515.1,286047005.9,N
1586520516.0,286047005.9,N
1586520535.8,286047005.9,N
1586520555.6,286047003.4,N
1586520575.5,286047003.9,N
1586520595.3,286047001.4,N
1586520615.2,286047004.4,N
1586520635.9,286047002.0,N
1586520655.7,286047000.0,N
1586520675.6,286047000.4,N
1586520695.4,286047000.9,N
1586520715.2,286046998.2,N
1586520735.1,286047001.0,N
1586520736.0,286047001.0,N
1586520755.8,286047000.9,N
1586520775.7,286047000.8,N
1586520795.5,286046999.4,N
1586520815.3,286047000.9,N
1586520835.2,286046998.1,N
1586520855.0,286047000.7,N
1586520855.9,286047000.7,N
1586520875.8,286046998.2,N
1586520895.6,286047001.0,N
1586520915.4,286047001.1,N
1586520935.3,286046998.5,N
1586520955.1,286047000.8,N
1586520975.9,286046998.7,N
1586520995.7,286047000.3,N
1586521015.5,286047000.4,N
1586521035.4,286047000.4,N
1586521055.2,286046998.5,N
1586521075.0,286046998.4,N
1586521075.9,286046998.4,N
1586521095.8,286046996.8,N
1586521115.6,286046998.9,N
1586521135.5,286046996.9,N
1586521155.3,286046996.9,N
1586521175.1,286046997.5,N
1586521195.9,286046995.1,Y
1586521215.7,286046995.5,P
1586521235.6,286046995.8,N
1586521255.4,286046995.8,N
1586521275.2,286046994.1,Y
1586521295.1,286046996.9,P
1586521296.0,286046996.9,P
1586521315.8,286046996.8,P
1586521335.7,286046997.4,Y
1586521355.5,286047000.7,P
1586521375.3,286047000.7,N
1586521395.2,286046998.7,N
1586521415.0,286046999.1,N
1586521415.9,286046999.1,N
1586521435.7,286046999.4,N
1586521455.6,286046998.9,N
1586521475.4,286046998.4,N
1586521495.3,286046999.4,N
1586521515.1,286046999.0,N
1586521516.0,286046999.0,N
1586521535.8,286046998.4,N
1586521555.7,286046998.1,N
1586521575.5,286046999.4,N
1586521595.4,286046997.1,Y
1586521615.2,286046999.1,P
1586521635.0,286046999.4,P
1586521635.9,286046999.4,P
1586521655.8,286046998.2,Y
1586521675.6,286047000.7,P
1586521695.5,286047000.8,N
1586521715.3,286047000.7,N
1586521735.1,286046998.1,N
1586521755.9,286046999.6,N
1586521775.7,286046994.9,Y
1586521795.6,286046995.4,P
1586521815.4,286046995.8,N
1586521835.2,286046993.5,P
1586521855.1,286046993.4,N
1586521856.0,286046993.4,N
1586521875.8,286046996.1,N
1586521895.6,286046996.1,N
1586521915.5,286046994.5,N
1586521935.3,286046993.5,Y
1586521955.2,286046998.1,P
1586521975.9,286047000.8,N
1586521995.7,286047000.7,N
1586522015.6,286046998.2,N
1586522035.4,286046998.2,N
1586522055.3,286046998.9,N
1586522075.1,286046998.7,N
1586522076.0,286046998.7,N
1586522095.8,286046999.1,N
1586522115.7,286046998.6,N
1586522135.5,286047000.3,N
1586522155.3,286046998.7,N
1586522175.2,286047000.8,N
1586522195.0,286046999.0,N
1586522195.9,286046999.0,N
1586522215.8,286046996.6,N
1586522235.6,286046997.0,N
1586522255.4,286046999.1,N
1586522275.3,286046998.5,N
1586522295.1,286046999.0,N
1586522315.9,286047000.8,N
1586522335.7,286047000.8,N
1586522355.5,286047000.9,N
1586522375.4,286047001.2,N
1586522395.2,286046998.5,N
1586522415.0,286047000.9,N
1586522415.9,286047000.9,N
1586522435.8,286047000.3,N
1586522455.6,286047000.9,N
1586522475.5,286047000.2,N
1586522495.3,286047000.3,N
1586522515.1,286047000.0,N
1586522535.9,286046998.3,N
1586522555.7,286046999.1,N
1586522575.6,286046998.9,N
1586522595.4,286046999.1,N
1586522615.2,286046996.6,N
1586522635.1,286046999.2,N
1586522636.0,286046999.2,N
1586522655.8,286046998.9,N
1586522675.7,286046998.7,N
1586522695.5,286046998.2,N
1586522715.3,286046998.1,N
1586522735.2,286047000.2,N
1586522755.0,286047002.6,N
1586522755.9,286047002.6,N
1586522775.7,286047002.2,N
1586522795.6,286046999.7,N
1586522815.4,286047000.7,N
1586522835.3,286046998.1,N
1586522855.1,286047002.8,N
1586522875.8,286047002.2,N
1586522895.7,286047001.6,N
1586522915.5,286047004.3,N
1586522935.4,286047003.8,N
1586522955.2,286047003.6,N
1586522975.0,286047001.7,N
1586522975.9,286047001.7,N
1586522995.8,286047003.2,N
1586523015.6,286047001.3,N
1586523035.4,286047001.4,N
1586523055.3,286047001.5,N
1586523075.1,286047003.5,N
1586523095.9,286047002.9,N
1586523115.7,286047003.5,N
1586523135.5,286047004.2,N
1586523155.4,286047004.3,N
1586523175.2,286047004.1,N
1586523195.1,286047004.2,N
1586523196.0,286047004.2,N
1586523215.8,286047003.2,N
1586523235.6,286047003.6,N
1586523255.5,286047002.9,N
1586523275.3,286047003.8,N
1586523295.1,286047003.3,N
1586523315.9,286047004.1,N
1586523335.7,286047001.7,N
1586523355.6,286047003.9,N
1586523375.4,286047004.4,Y
1586523395.2,286047000.2,P
1586523415.1,286047000.6,N
1586523416.0,286047000.6,N
1586523435.8,286047000.1,N
1586523455.7,286047002.6,N
1586523475.5,286047002.1,N
1586523495.3,286047002.1,N
1586523515.2,286047004.0,Y
1586523535.0,286047000.4,P
1586523535.9,286047000.4,N
1586523555.8,286047000.4,N
1586523575.6,286047002.2,Y
1586523595.4,286047000.7,P
